period_start,C,m1,H,J0,J1,J2,J3,J4,J5,JA,JB,JC,JD,JJ,JK,JN,#
2015-08-03 00:02:41,0.00,0.34,0.00,25.30,28.90,31.22,4.72,25.78,1014.12,2033.00,3259.01,3163.00,3442.99,350.12,344.28,20.30,0000 0000 0000 0000 000000
2015-08-03 00:07:42,0.00,0.34,0.00,25.32,28.90,31.23,4.69,25.71,1014.06,2033.01,3259.00,3163.00,3442.98,349.78,343.97,20.33,0000 0000 0000 0000 000000
2015-08-03 00:12:43,0.00,0.34,0.00,25.32,28.92,31.23,4.73,25.61,1014.08,2033.00,3259.00,3163.00,3442.94,349.91,344.13,20.36,0000 0000 0000 0000 000000
2015-08-03 00:17:44,0.01,0.34,0.00,25.32,28.92,31.23,4.74,25.74,1014.05,2033.00,3258.98,3162.99,3442.60,349.92,343.94,20.39,0000 0000 0000 0000 000000
2015-08-03 00:22:46,0.00,0.34,0.00,25.33,28.92,31.25,4.67,25.72,1014.11,2033.00,3258.97,3162.98,3442.30,349.53,343.58,20.42,0000 0000 0000 0000 000000
2015-08-03 00:27:47,0.01,0.34,0.00,25.32,28.92,31.24,4.72,25.73,1014.12,2033.00,3258.75,3162.95,3442.06,349.97,343.99,20.45,0000 0000 0000 0000 000000
2015-08-03 00:32:48,0.02,0.34,0.00,25.32,28.92,31.26,4.68,25.63,1014.14,2033.00,3258.26,3162.77,3442.01,349.76,344.03,20.48,0000 0000 0000 0000 000000
2015-08-03 00:37:50,0.02,0.34,0.00,25.33,28.93,31.25,4.77,25.77,1014.13,2033.00,3258.09,3162.44,3442.00,349.82,344.09,20.51,0000 0000 0000 0000 000000
2015-08-03 00:42:51,0.01,0.34,0.00,25.35,28.95,31.27,4.76,25.80,1014.03,2032.99,3258.00,3162.09,3441.99,349.77,343.99,20.53,0000 0000 0000 0000 000000
2015-08-03 00:47:52,0.00,0.34,0.00,25.35,28.95,31.27,4.75,25.72,1013.94,2032.99,3257.99,3162.01,3441.95,350.36,344.50,20.56,0000 0000 0000 0000 000000
2015-08-03 00:52:54,0.01,0.34,0.00,25.36,28.95,31.27,4.74,25.77,1014.08,2032.99,3257.96,3162.00,3441.46,349.96,344.03,20.59,0000 0000 0000 0000 000000
2015-08-03 00:57:55,0.00,0.34,0.00,25.35,28.95,31.28,4.63,25.67,1014.06,2032.99,3257.81,3162.00,3441.17,349.70,343.76,20.62,0000 0000 0000 0000 000000
2015-08-03 01:02:56,0.02,0.34,0.00,25.37,28.95,31.29,4.73,25.98,1013.84,2032.99,3257.34,3161.98,3441.04,349.96,343.92,20.65,0000 0000 0000 0000 000000
2015-08-03 01:07:58,0.00,0.34,0.00,25.37,28.96,31.28,4.70,25.77,1013.74,2032.98,3257.03,3161.94,3441.00,349.83,343.87,20.68,0000 0000 0000 0000 000000
2015-08-03 01:12:59,0.01,0.34,0.00,25.37,28.97,31.29,4.69,25.77,1013.71,2032.98,3257.00,3161.76,3441.00,349.92,343.93,20.71,0000 0000 0000 0000 000000
2015-08-03 01:18:00,0.03,0.34,0.00,25.37,28.97,31.28,4.65,25.73,1013.72,2032.98,3256.99,3161.30,3440.98,349.84,343.98,20.74,0000 0000 0000 0000 000000
2015-08-03 01:23:01,0.01,0.34,0.00,25.37,28.97,31.28,4.65,25.76,1013.85,2032.97,3256.93,3161.06,3440.96,349.84,343.82,20.77,0000 0000 0000 0000 000000
2015-08-03 01:28:02,0.02,0.34,0.00,25.39,28.97,31.30,4.69,25.74,1014.02,2032.99,3256.48,3161.01,3440.67,349.66,343.68,20.80,0000 0000 0000 0000 000000
2015-08-03 01:33:04,0.02,0.34,0.00,25.38,28.97,31.31,4.72,25.68,1014.15,2032.99,3256.04,3161.00,3440.16,349.60,343.68,20.83,0000 0000 0000 0000 000000
2015-08-03 01:38:05,-0.00,0.34,0.00,25.39,28.99,31.31,4.64,25.70,1014.17,2032.98,3256.00,3160.99,3440.02,350.06,344.22,20.86,0000 0000 0000 0000 000000
2015-08-03 01:43:06,0.00,0.34,0.00,25.39,29.00,31.31,4.67,25.69,1014.17,2032.99,3256.00,3160.98,3440.01,349.96,343.92,20.89,0000 0000 0000 0000 000000
2015-08-03 01:48:08,0.00,0.34,0.00,25.40,29.00,31.31,4.70,25.79,1014.17,2032.98,3255.96,3160.98,3440.01,350.01,344.09,20.92,0000 0000 0000 0000 000000
2015-08-03 01:53:09,0.01,0.34,0.00,25.40,29.00,31.32,4.65,25.69,1014.16,2032.97,3255.74,3160.85,3440.00,349.55,343.63,20.94,0000 0000 0000 0000 000000
2015-08-03 01:58:10,-0.01,0.34,0.00,25.40,29.00,31.33,4.80,25.77,1014.17,2032.99,3255.82,3160.92,3440.00,350.41,344.54,20.97,0000 0000 0000 0000 000000
2015-08-03 02:03:12,0.04,0.34,0.00,25.40,29.00,31.33,4.68,26.03,1014.17,2032.98,3255.22,3160.49,3439.96,349.61,343.69,21.00,0000 0000 0000 0000 000000
2015-08-03 02:08:13,0.01,0.35,0.00,25.40,29.00,31.33,4.72,25.64,1014.17,2032.98,3255.01,3160.08,3439.84,349.79,343.84,21.03,0000 0000 0000 0000 000000
2015-08-03 02:13:14,0.01,0.35,0.00,25.40,29.00,31.34,4.70,25.68,1014.17,2032.97,3254.99,3160.01,3439.47,349.81,343.90,21.06,0000 0000 0000 0000 000000
2015-08-03 02:18:15,0.01,0.35,0.00,25.42,29.01,31.34,4.67,25.62,1014.17,2032.97,3254.97,3160.00,3439.06,349.37,343.46,21.09,0000 0000 0000 0000 000000
2015-08-03 02:23:16,0.00,0.35,0.00,25.41,29.02,31.35,4.67,25.76,1014.17,2032.98,3254.83,3160.00,3439.01,350.03,344.13,21.12,0000 0000 0000 0000 000000
2015-08-03 02:28:18,0.00,0.35,0.00,25.40,29.02,31.33,4.63,25.68,1014.17,2032.97,3254.76,3160.00,3439.00,349.56,343.80,21.15,0000 0000 0000 0000 000000
2015-08-03 02:33:19,0.01,0.35,0.00,25.41,29.02,31.34,4.71,25.75,1014.17,2032.97,3254.15,3160.00,3438.99,349.85,343.69,21.18,0000 0000 0000 0000 000000
2015-08-03 02:38:20,0.00,0.35,0.00,25.42,29.02,31.36,4.69,25.73,1014.17,2032.97,3254.01,3159.94,3438.97,350.12,344.35,21.21,0000 0000 0000 0000 000000
2015-08-03 02:43:21,0.01,0.35,0.00,25.42,29.02,31.35,4.80,25.78,1014.17,2032.96,3254.00,3159.73,3438.85,350.72,344.75,21.24,0000 0000 0000 0000 000000
2015-08-03 02:48:23,0.04,0.35,0.00,25.42,29.02,31.35,4.62,25.67,1014.17,2032.95,3253.92,3159.16,3438.27,349.68,343.83,21.27,0000 0000 0000 0000 000000
2015-08-03 02:53:24,0.02,0.35,0.00,25.42,29.02,31.36,4.72,25.73,1014.17,2032.94,3253.45,3159.02,3438.04,350.09,344.01,21.30,0000 0000 0000 0000 000000
2015-08-03 02:58:25,0.01,0.35,0.00,25.42,29.02,31.35,4.75,25.78,1014.16,2032.93,3253.03,3159.00,3438.00,349.78,343.82,21.33,0000 0000 0000 0000 000000
2015-08-03 03:03:26,-0.01,0.35,0.00,25.42,29.03,31.36,4.73,26.00,1014.17,2032.92,3253.00,3158.99,3438.00,350.29,344.18,21.36,0000 0000 0000 0000 000000
2015-08-03 03:08:28,0.02,0.35,0.00,25.42,29.04,31.36,4.76,25.75,1014.17,2032.95,3252.98,3158.98,3437.99,350.13,344.33,21.38,0000 0000 0000 0000 000000
2015-08-03 03:13:29,0.00,0.35,0.00,25.42,29.05,31.37,4.69,25.68,1014.17,2032.93,3252.88,3158.93,3437.86,350.04,344.11,21.41,0000 0000 0000 0000 000000
2015-08-03 03:18:30,0.03,0.35,0.00,25.42,29.05,31.36,4.71,25.77,1014.17,2032.92,3252.43,3158.75,3437.59,349.91,343.93,21.44,0000 0000 0000 0000 000000
2015-08-03 03:23:31,0.05,0.35,0.00,25.42,29.05,31.37,4.64,25.73,1014.17,2032.91,3252.04,3158.29,3437.16,349.13,343.15,21.47,0000 0000 0000 0000 000000
2015-08-03 03:28:33,-0.00,0.35,0.00,25.42,29.05,31.39,4.62,25.76,1014.15,2032.86,3252.00,3158.07,3437.02,349.35,343.41,21.50,0000 0000 0000 0000 000000
2015-08-03 03:33:34,-0.00,0.35,0.00,25.42,29.05,31.37,4.74,25.73,1014.12,2032.85,3252.00,3158.00,3437.00,350.34,344.34,21.53,0000 0000 0000 0000 000000
2015-08-03 03:38:35,0.00,0.35,0.00,25.42,29.05,31.37,4.72,25.65,1014.10,2032.83,3251.97,3158.00,3437.00,350.18,344.17,21.56,0000 0000 0000 0000 000000
2015-08-03 03:43:36,0.01,0.35,0.00,25.42,29.05,31.38,4.64,25.67,1013.98,2032.86,3251.77,3158.00,3436.99,349.84,343.90,21.59,0000 0000 0000 0000 000000
2015-08-03 03:48:37,0.01,0.35,0.00,25.42,29.05,31.38,4.80,25.81,1013.85,2032.83,3251.23,3158.00,3436.93,350.42,344.47,21.62,0000 0000 0000 0000 000000
2015-08-03 03:53:38,0.00,0.35,0.00,25.42,29.05,31.38,4.75,25.73,1013.74,2032.77,3251.02,3157.96,3436.52,350.33,344.03,21.65,0000 0000 0000 0000 000000
2015-08-03 03:58:40,0.03,0.35,0.00,25.42,29.06,31.39,4.75,25.66,1013.71,2032.74,3251.00,3157.66,3436.08,349.96,343.97,21.68,0000 0000 0000 0000 000000
2015-08-03 04:03:41,0.01,0.35,0.00,25.42,29.07,31.39,4.71,25.95,1013.71,2032.66,3250.97,3157.33,3436.02,349.97,343.97,21.71,0000 0000 0000 0000 000000
2015-08-03 04:08:43,0.01,0.35,0.00,25.42,29.07,31.39,4.72,25.74,1013.70,2032.64,3250.90,3157.06,3436.00,349.76,343.53,21.74,0000 0000 0000 0000 000000
2015-08-03 04:13:44,0.00,0.35,0.00,25.42,29.07,31.39,4.68,25.69,1013.70,2032.49,3250.24,3157.00,3436.00,349.62,343.42,21.77,0000 0000 0000 0000 000000
2015-08-03 04:18:45,0.02,0.35,0.00,25.43,29.07,31.39,4.68,25.77,1013.70,2032.61,3250.06,3157.00,3435.99,349.88,343.76,21.79,0000 0000 0000 0000 000000
2015-08-03 04:23:46,-0.01,0.35,0.00,25.42,29.07,31.39,4.73,25.72,1013.70,2032.54,3250.00,3157.00,3435.86,350.34,344.19,21.82,0000 0000 0000 0000 000000
2015-08-03 04:28:48,0.05,0.36,0.00,25.42,29.07,31.39,4.70,25.66,1013.72,2032.75,3249.99,3156.98,3435.49,350.18,343.86,21.85,0000 0000 0000 0000 000000
2015-08-03 04:33:49,-0.01,0.36,0.00,25.42,29.07,31.40,4.72,25.70,1013.77,2032.64,3249.88,3156.91,3435.08,349.91,343.98,21.88,0000 0000 0000 0000 000000
2015-08-03 04:38:50,0.01,0.36,0.00,25.42,29.07,31.40,4.75,25.72,1013.92,2032.55,3249.31,3156.65,3435.01,349.99,344.00,21.91,0000 0000 0000 0000 000000
2015-08-03 04:43:52,0.02,0.36,0.00,25.42,29.07,31.39,4.71,25.62,1013.95,2032.62,3249.03,3156.14,3434.99,349.98,344.04,21.94,0000 0000 0000 0000 000000
2015-08-03 04:48:53,0.01,0.36,0.00,25.42,29.07,31.40,4.70,25.62,1013.82,2032.54,3249.00,3156.01,3434.97,350.22,344.19,21.97,0000 0000 0000 0000 000000
2015-08-03 04:53:54,0.01,0.36,0.00,25.44,29.07,31.40,4.67,25.72,1013.73,2032.57,3248.99,3156.00,3434.91,349.98,343.93,22.00,0000 0000 0000 0000 000000
2015-08-03 04:58:55,0.03,0.36,0.00,25.42,29.08,31.40,4.65,25.71,1013.70,2032.62,3248.66,3156.00,3434.39,349.67,343.36,22.03,0000 0000 0000 0000 000000
2015-08-03 05:03:57,-0.02,0.36,0.00,25.43,29.08,31.40,4.72,26.03,1013.70,2032.43,3248.17,3155.97,3434.05,349.99,343.94,22.06,0000 0000 0000 0000 000000
2015-08-03 05:08:58,0.06,0.36,0.00,25.43,29.08,31.42,4.67,25.69,1013.69,2032.64,3248.01,3155.95,3434.00,349.69,343.56,22.09,0000 0000 0000 0000 000000
2015-08-03 05:14:00,0.00,0.36,0.00,25.44,29.08,31.40,4.69,25.71,1013.70,2032.72,3248.00,3155.79,3434.00,350.09,344.03,22.12,0000 0000 0000 0000 000000
2015-08-03 05:19:01,0.03,0.36,0.00,25.43,29.08,31.41,4.71,25.75,1013.69,2032.76,3247.97,3155.46,3433.99,350.42,344.28,22.15,0000 0000 0000 0000 000000
2015-08-03 05:24:03,0.01,0.36,0.00,25.44,29.08,31.41,4.68,25.77,1013.69,2032.65,3247.77,3155.04,3433.92,349.86,343.63,22.18,0000 0000 0000 0000 000000
2015-08-03 05:29:04,0.00,0.36,0.00,25.45,29.09,31.40,4.75,25.77,1013.69,2032.53,3247.33,3155.01,3433.48,349.89,343.87,22.20,0000 0000 0000 0000 000000
2015-08-03 05:34:05,-0.03,0.36,0.00,25.45,29.10,31.41,4.66,25.81,1013.69,2032.26,3247.02,3155.00,3433.07,349.67,343.59,22.23,0000 0000 0000 0000 000000
2015-08-03 05:39:06,0.01,0.36,0.00,25.45,29.10,31.41,4.72,25.76,1013.69,2032.21,3246.99,3154.98,3433.00,350.07,343.92,22.26,0000 0000 0000 0000 000000
2015-08-03 05:44:07,0.01,0.36,0.00,25.45,29.10,31.40,4.70,25.74,1013.69,2032.29,3246.97,3154.94,3433.00,349.98,343.89,22.29,0000 0000 0000 0000 000000
2015-08-03 05:49:09,0.03,0.36,0.00,25.45,29.10,31.41,4.67,25.81,1013.69,2032.31,3246.45,3154.75,3432.98,349.81,343.55,22.32,0000 0000 0000 0000 000000
2015-08-03 05:54:10,0.04,0.36,0.00,25.45,29.10,31.41,4.78,25.89,1013.69,2032.31,3246.02,3154.16,3432.67,349.78,343.47,22.35,0000 0000 0000 0000 000000
2015-08-03 05:59:11,0.00,0.36,0.00,25.45,29.10,31.41,4.71,25.83,1013.69,2032.26,3246.00,3154.02,3432.17,349.77,343.61,22.38,0000 0000 0000 0000 000000
2015-08-03 06:04:12,-0.01,0.36,0.00,25.45,29.10,31.41,4.76,26.08,1013.69,2032.09,3245.72,3154.00,3432.01,350.26,344.19,22.41,0000 0000 0000 0000 000000
2015-08-03 06:09:13,0.02,0.36,0.00,25.45,29.10,31.41,4.66,25.88,1013.69,2032.15,3245.44,3154.00,3431.99,349.50,343.38,22.44,0000 0000 0000 0000 000000
2015-08-03 06:14:15,0.03,0.36,0.00,25.43,29.10,31.42,4.69,25.89,1013.69,2032.20,3245.03,3153.95,3431.98,349.93,343.64,22.47,0000 0000 0000 0000 000000
2015-08-03 06:19:16,0.03,0.36,0.00,25.44,29.10,31.42,4.67,25.82,1013.69,2032.31,3245.00,3153.72,3431.86,349.67,343.53,22.50,0000 0000 0000 0000 000000
2015-08-03 06:24:17,0.05,0.37,0.00,25.45,29.10,31.41,4.76,25.78,1013.69,2032.26,3244.49,3153.11,3431.17,350.17,343.88,22.53,0000 0000 0000 0000 000000
2015-08-03 06:29:18,0.02,0.37,0.00,25.45,29.10,31.42,4.75,25.81,1013.69,2032.35,3244.09,3153.01,3431.01,350.31,344.19,22.56,0000 0000 0000 0000 000000
2015-08-03 06:34:20,-0.02,0.37,0.00,25.45,29.10,31.41,4.66,25.79,1013.70,2032.21,3243.94,3152.98,3430.91,350.19,344.24,22.59,0000 0000 0000 0000 000000
2015-08-03 06:39:21,0.07,0.37,0.00,25.45,29.10,31.43,4.74,25.77,1013.69,2032.26,3243.31,3152.78,3430.31,350.01,343.85,22.61,0000 0000 0000 0000 000000
2015-08-03 06:44:23,0.03,0.37,0.00,25.45,29.10,31.43,4.75,25.81,1013.69,2032.35,3243.00,3152.16,3430.01,350.09,343.89,22.64,0000 0000 0000 0000 000000
2015-08-03 06:49:24,-0.00,0.37,0.00,25.45,29.10,31.42,4.77,25.79,1013.70,2032.29,3242.77,3152.00,3429.98,350.70,344.73,22.67,0000 0000 0000 0000 000000
2015-08-03 06:54:26,0.02,0.37,0.00,25.45,29.10,31.42,4.72,25.92,1013.69,2032.13,3242.06,3151.97,3429.50,349.59,343.47,22.70,0000 0000 0000 0000 000000
2015-08-03 06:59:27,0.02,0.37,0.00,25.45,29.10,31.43,4.67,25.76,1013.70,2032.09,3241.99,3151.67,3429.02,349.99,343.84,22.73,0000 0000 0000 0000 000000
2015-08-03 07:04:28,0.03,0.37,0.00,25.45,29.10,31.42,4.69,26.07,1013.71,2032.08,3241.33,3151.17,3428.99,349.12,343.01,22.76,0000 0000 0000 0000 000000
2015-08-03 07:09:29,0.00,0.37,0.00,25.45,29.10,31.41,4.75,25.81,1013.75,2032.08,3241.01,3151.00,3428.93,350.30,343.98,22.79,0000 0000 0000 0000 000000
2015-08-03 07:14:30,0.02,0.37,0.00,25.43,29.10,31.43,4.71,25.78,1013.76,2032.09,3240.99,3151.00,3428.54,349.79,343.69,22.82,0000 0000 0000 0000 000000
2015-08-03 07:19:32,0.02,0.37,0.00,25.44,29.10,31.43,4.72,25.82,1013.75,2032.09,3240.83,3150.97,3428.06,349.69,343.69,22.85,0000 0000 0000 0000 000000
2015-08-03 07:24:33,0.03,0.37,0.00,25.43,29.10,31.43,4.74,25.78,1013.75,2032.09,3240.14,3150.71,3428.00,349.75,343.47,22.88,0000 0000 0000 0000 000000
2015-08-03 07:29:34,0.02,0.38,0.00,25.44,29.10,31.44,4.72,25.77,1013.77,2032.09,3240.01,3150.28,3428.00,350.20,344.08,22.91,0000 0000 0000 0000 000000
2015-08-03 07:34:35,0.00,0.38,0.00,25.44,29.10,31.45,4.67,25.72,1013.93,2032.04,3239.99,3150.02,3427.93,349.81,343.70,22.94,0000 0000 0000 0000 000000
2015-08-03 07:39:36,0.02,0.38,0.00,25.44,29.11,31.43,4.74,25.68,1014.07,2032.07,3239.96,3150.00,3427.73,350.06,343.89,22.97,0000 0000 0000 0000 000000
2015-08-03 07:44:38,0.01,0.38,0.00,25.44,29.11,31.42,4.64,25.64,1014.14,2032.05,3239.86,3150.00,3427.43,349.71,343.61,23.00,0000 0000 0000 0000 000000
2015-08-03 07:49:39,0.02,0.38,0.00,25.43,29.10,31.43,4.71,25.78,1014.09,2032.10,3239.47,3150.00,3427.15,349.81,343.60,23.02,0000 0000 0000 0000 000000
2015-08-03 07:54:40,-0.00,0.38,0.00,25.42,29.11,31.43,4.73,25.72,1014.10,2032.07,3239.10,3149.99,3427.02,350.23,344.29,23.05,0000 0000 0000 0000 000000
2015-08-03 07:59:42,-0.00,0.38,0.00,25.42,29.11,31.44,4.77,25.70,1014.17,2032.06,3239.03,3149.99,3427.00,350.31,344.31,23.08,0000 0000 0000 0000 000000
2015-08-03 08:04:43,-0.00,0.38,0.00,25.42,29.10,31.44,4.61,25.91,1014.17,2032.05,3239.00,3149.95,3427.00,349.68,343.57,23.11,0000 0000 0000 0000 000000
2015-08-03 08:09:44,0.00,0.38,0.00,25.42,29.10,31.44,4.71,25.64,1014.17,2032.05,3238.99,3149.92,3427.00,349.81,343.88,23.14,0000 0000 0000 0000 000000
2015-08-03 08:14:46,0.12,0.38,0.00,25.42,29.10,31.44,4.71,25.73,1014.17,2032.14,3238.09,3149.39,3426.58,350.38,344.42,23.17,0000 0000 0000 0000 000000
2015-08-03 08:19:47,0.03,0.38,0.00,25.42,29.10,31.44,4.68,25.65,1014.17,2032.08,3236.80,3148.66,3425.98,349.72,343.76,23.20,0000 0000 0000 0000 000000
2015-08-03 08:24:48,0.02,0.38,0.00,25.42,29.10,31.45,4.71,25.76,1014.17,2032.08,3236.46,3148.46,3425.92,349.85,343.66,23.23,0000 0000 0000 0000 000000
2015-08-03 08:29:49,0.02,0.38,0.00,25.42,29.10,31.44,4.72,25.68,1014.17,2032.09,3236.12,3148.19,3425.65,350.12,344.16,23.26,0000 0000 0000 0000 000000
2015-08-03 08:34:50,0.01,0.38,0.00,25.42,29.10,31.43,4.75,25.73,1014.17,2032.06,3236.02,3148.04,3425.18,349.56,343.64,23.29,0000 0000 0000 0000 000000
2015-08-03 08:39:52,0.01,0.38,0.00,25.42,29.10,31.44,4.72,25.72,1014.17,2032.10,3236.00,3148.03,3425.18,349.96,344.05,23.32,0000 0000 0000 0000 000000
2015-08-03 08:44:53,-0.00,0.38,0.00,25.41,29.10,31.43,4.70,25.73,1014.17,2032.05,3236.00,3148.01,3425.05,349.67,343.50,23.35,0000 0000 0000 0000 000000
2015-08-03 08:49:55,-0.00,0.38,0.00,25.42,29.10,31.42,4.75,25.78,1014.17,2032.03,3235.99,3148.00,3425.02,350.05,344.14,23.38,0000 0000 0000 0000 000000
2015-08-03 08:54:57,0.00,0.38,0.00,25.41,29.10,31.42,4.68,25.74,1014.17,2032.07,3235.99,3148.00,3425.00,349.74,343.63,23.41,0000 0000 0000 0000 000000
2015-08-03 08:59:58,-0.00,0.38,0.00,25.42,29.10,31.42,4.68,25.79,1014.17,2032.04,3235.97,3148.00,3425.00,349.76,343.88,23.43,0000 0000 0000 0000 000000
2015-08-03 09:04:59,0.00,0.38,0.00,25.41,29.10,31.43,4.65,25.93,1014.17,2032.04,3235.91,3148.00,3425.00,349.66,343.75,23.46,0000 0000 0000 0000 000000
2015-08-03 09:10:00,0.01,0.38,0.00,25.40,29.10,31.42,4.74,25.67,1014.17,2032.04,3235.89,3147.99,3425.00,350.09,343.87,23.49,0000 0000 0000 0000 000000
2015-08-03 09:15:02,0.01,0.38,0.00,25.41,29.10,31.42,4.65,25.73,1014.17,2032.07,3235.69,3147.99,3424.99,349.59,343.62,23.52,0000 0000 0000 0000 000000
2015-08-03 09:20:03,0.00,0.38,0.00,25.40,29.10,31.42,4.74,25.78,1014.17,2032.05,3235.51,3147.99,3424.99,350.04,344.19,23.55,0000 0000 0000 0000 000000
2015-08-03 09:25:04,0.01,0.38,0.00,25.40,29.10,31.41,4.71,25.75,1014.17,2032.06,3235.28,3147.99,3424.99,350.19,344.09,23.58,0000 0000 0000 0000 000000
2015-08-03 09:30:05,-0.00,0.38,0.00,25.40,29.10,31.43,4.72,25.77,1014.18,2032.05,3235.09,3147.98,3424.98,349.79,343.84,23.61,0000 0000 0000 0000 000000
2015-08-03 09:35:07,0.01,0.38,0.00,25.40,29.10,31.44,4.69,25.68,1014.18,2032.08,3235.04,3147.98,3424.95,350.01,344.04,23.64,0000 0000 0000 0000 000000
2015-08-03 09:40:08,0.01,0.39,0.00,25.40,29.10,31.43,4.73,25.70,1014.18,2032.16,3235.06,3147.98,3424.95,350.13,344.16,23.67,0000 0000 0000 0000 000000
2015-08-03 09:45:09,0.01,0.39,0.00,25.40,29.10,31.42,4.67,25.71,1014.18,2032.18,3235.02,3147.98,3424.92,350.27,344.23,23.70,0000 0000 0000 0000 000000
2015-08-03 09:50:11,0.04,0.39,0.00,25.39,29.10,31.42,4.67,25.76,1014.18,2032.47,3235.01,3147.97,3424.91,349.54,343.63,23.73,0000 0000 0000 0000 000000
2015-08-03 09:55:12,-0.03,0.39,0.00,25.38,29.09,31.41,4.67,25.72,1014.18,2032.24,3235.00,3147.94,3424.45,349.98,344.14,23.76,0000 0000 0000 0000 000000
2015-08-03 10:00:14,0.02,0.39,0.00,25.38,29.09,31.42,4.69,25.70,1014.18,2032.16,3234.99,3147.79,3424.11,349.51,343.67,23.79,0000 0000 0000 0000 000000
2015-08-03 10:05:15,0.01,0.39,0.00,25.39,29.08,31.41,4.72,25.90,1014.18,2032.10,3234.90,3147.36,3424.00,349.64,343.86,23.82,0000 0000 0000 0000 000000
2015-08-03 10:10:26,-0.00,0.39,0.00,25.38,29.08,31.41,4.68,25.73,1014.18,2032.08,3234.88,3147.20,3424.00,349.75,344.04,23.84,0000 0000 0000 0000 000000
2015-08-03 10:15:27,0.01,0.39,0.00,25.37,29.08,31.41,4.71,25.73,1014.18,2032.06,3234.53,3147.07,3424.00,349.92,344.19,23.87,0000 0000 0000 0000 000000
2015-08-03 10:20:29,0.01,0.39,0.00,25.37,29.07,31.42,4.73,25.76,1014.18,2032.13,3234.51,3147.12,3424.00,350.22,344.23,23.90,0000 0000 0000 0000 000000
2015-08-03 10:25:30,0.02,0.39,0.00,25.35,29.07,31.41,4.67,25.77,1014.18,2032.17,3234.23,3147.07,3424.00,349.84,343.91,23.93,0000 0000 0000 0000 000000
2015-08-03 10:30:31,0.08,0.39,0.00,25.36,29.07,31.43,4.75,25.73,1014.18,2032.16,3233.19,3146.40,3423.15,350.52,344.52,23.96,0000 0000 0000 0000 000000
2015-08-03 10:35:32,0.03,0.39,0.00,25.37,29.07,31.42,4.81,25.72,1014.19,2032.28,3233.00,3146.21,3423.00,350.16,344.29,23.99,0000 0000 0000 0000 000000
2015-08-03 10:40:34,0.02,0.39,0.00,25.37,29.07,31.42,4.69,25.80,1014.19,2032.43,3233.00,3146.28,3423.00,349.78,343.80,24.02,0000 0000 0000 0000 000000
2015-08-03 10:45:35,0.01,0.39,0.00,25.37,29.07,31.40,4.71,25.75,1014.18,2032.53,3233.00,3146.21,3422.99,349.90,343.95,24.05,0000 0000 0000 0000 000000
2015-08-03 10:50:37,0.03,0.39,0.00,25.36,29.07,31.40,4.70,25.82,1014.18,2032.53,3232.99,3146.13,3422.98,350.23,344.12,24.08,0000 0000 0000 0000 000000
2015-08-03 10:55:38,-0.02,0.39,0.00,25.36,29.07,31.39,4.75,25.80,1014.19,2032.51,3232.99,3146.08,3422.98,350.34,344.58,24.11,0000 0000 0000 0000 000000
2015-08-03 11:00:39,-0.01,0.39,0.00,25.35,29.07,31.41,4.72,25.88,1014.19,2032.45,3232.98,3146.04,3422.96,349.77,344.00,24.14,0000 0000 0000 0000 000000
2015-08-03 11:05:41,0.00,0.39,0.00,25.35,29.07,31.40,4.75,25.92,1014.20,2032.33,3232.69,3146.01,3422.69,350.14,344.17,24.17,0000 0000 0000 0000 000000
2015-08-03 11:10:42,0.00,0.39,0.00,25.35,29.06,31.38,4.78,25.85,1014.20,2032.29,3232.72,3146.01,3422.60,350.28,344.37,24.20,0000 0000 0000 0000 000000
2015-08-03 11:15:44,0.03,0.39,0.00,25.34,29.05,31.40,4.70,25.79,1014.21,2032.61,3232.62,3146.02,3422.70,350.27,344.41,24.23,0000 0000 0000 0000 000000
2015-08-03 11:20:45,0.04,0.39,0.00,25.35,29.05,31.40,4.75,25.83,1014.22,2032.71,3232.44,3146.01,3422.56,350.20,344.49,24.25,0000 0000 0000 0000 000000
2015-08-03 11:25:46,-0.00,0.39,0.00,25.35,29.05,31.39,4.69,25.82,1014.21,2032.70,3232.23,3146.00,3422.32,350.36,344.15,24.28,0000 0000 0000 0000 000000
2015-08-03 11:30:47,0.01,0.39,0.00,25.34,29.05,31.39,4.71,25.74,1014.20,2032.66,3232.02,3146.00,3422.10,350.09,344.11,24.31,0000 0000 0000 0000 000000
2015-08-03 11:35:48,0.01,0.39,0.00,25.33,29.05,31.39,4.75,25.79,1014.19,2032.58,3232.00,3146.00,3422.01,349.90,344.07,24.34,0000 0000 0000 0000 000000
2015-08-03 11:40:50,0.00,0.40,0.00,25.32,29.05,31.37,4.66,25.82,1014.20,2032.73,3232.00,3146.00,3422.01,349.64,343.78,24.37,0000 0000 0000 0000 000000
2015-08-03 11:45:52,-0.01,0.39,0.00,25.32,29.05,31.36,4.70,25.73,1014.19,2032.57,3232.00,3145.99,3422.00,349.83,344.09,24.40,0000 0000 0000 0000 000000
2015-08-03 11:50:53,0.02,0.40,0.00,25.30,29.05,31.38,4.71,25.80,1014.19,2032.86,3232.00,3145.99,3422.00,349.98,344.12,24.43,0000 0000 0000 0000 000000
2015-08-03 11:55:54,0.01,0.40,0.00,25.30,29.04,31.38,4.69,25.77,1014.20,2032.93,3232.00,3145.99,3422.00,350.08,344.37,24.46,0000 0000 0000 0000 000000
2015-08-03 12:00:56,0.00,0.40,0.00,25.30,29.03,31.37,4.73,25.86,1014.20,2032.92,3231.98,3145.98,3422.00,349.87,343.97,24.49,0000 0000 0000 0000 000000
2015-08-03 12:05:57,-0.01,0.40,0.00,25.30,29.03,31.35,4.73,26.00,1014.21,2032.84,3231.85,3145.98,3422.00,349.88,344.26,24.52,0000 0000 0000 0000 000000
2015-08-03 12:10:58,0.00,0.40,0.00,25.29,29.02,31.34,4.75,25.88,1014.20,2032.90,3231.85,3145.97,3421.98,350.23,344.61,24.55,0000 0000 0000 0000 000000
2015-08-03 12:16:00,0.00,0.40,0.00,25.30,29.02,31.36,4.74,25.77,1014.19,2032.87,3231.47,3145.95,3421.96,349.88,344.00,24.58,0000 0000 0000 0000 000000
2015-08-03 12:21:01,0.01,0.40,0.00,25.28,29.02,31.36,4.75,25.89,1014.19,2032.89,3231.38,3145.95,3421.97,350.19,344.27,24.61,0000 0000 0000 0000 000000
2015-08-03 12:26:02,0.01,0.40,0.00,25.27,29.02,31.35,4.75,25.81,1014.20,2032.93,3231.11,3145.93,3421.90,350.08,344.22,24.64,0000 0000 0000 0000 000000
2015-08-03 12:31:04,0.02,0.40,0.00,25.27,29.02,31.35,4.79,25.85,1014.20,2032.90,3231.02,3145.75,3421.44,350.53,344.67,24.66,0000 0000 0000 0000 000000
2015-08-03 12:36:05,0.01,0.40,0.00,25.27,29.02,31.36,4.67,25.82,1014.19,2032.88,3231.00,3145.52,3421.20,349.83,344.05,24.69,0000 0000 0000 0000 000000
2015-08-03 12:41:06,0.01,0.40,0.00,25.25,29.00,31.34,4.74,25.80,1014.19,2032.95,3231.00,3145.50,3421.14,349.98,344.24,24.72,0000 0000 0000 0000 000000
2015-08-03 12:46:07,0.00,0.40,0.00,25.25,29.00,31.34,4.71,25.84,1014.18,2032.94,3231.00,3145.53,3421.11,350.19,344.29,24.75,0000 0000 0000 0000 000000
2015-08-03 12:51:09,0.01,0.40,0.00,25.25,29.00,31.33,4.71,25.82,1014.18,2032.94,3230.99,3145.32,3421.03,349.86,344.23,24.78,0000 0000 0000 0000 000000
2015-08-03 12:56:10,0.01,0.40,0.00,25.25,29.00,31.33,4.65,25.90,1014.18,2032.96,3230.98,3145.24,3421.02,349.58,343.77,24.81,0000 0000 0000 0000 000000
2015-08-03 13:01:11,-0.00,0.40,0.00,25.25,29.00,31.33,4.77,25.93,1014.18,2032.97,3230.98,3145.21,3421.02,349.84,343.98,24.84,0000 0000 0000 0000 000000